Temperature
18 18 18 18 18 18 17 18 18 18 17 17 17 17 17 17 17 17 16 16 16 16 16 16 16 16 16 16 16 16 16 16 16 16 16 16 16 15 15 15 15 15 15
18 18 18 18 18 17 17 17 17 17 17 17 17 17 17 17 17 16 16 16 16 16 16 16 16 16 16 16 16 16 16 16 16 16 16 16 15 15 15 15 15 15 15
18 18 18 18 18 18 18 17 17 17 17 17 17 17 17 16 16 16 16 16 16 16 16 16 16 16 16 16 16 16 16 16 15 15 16 16 15 15 15 15 15 15 15
18 18 18 18 18 17 17 17 17 17 17 17 17 17 16 16 16 16 16 16 16 16 16 16 16 15 15 15 15 15 15 15 15 15 16 16 15 15 15 15 15 15 15
17 17 17 17 17 17 17 17 17 17 16 16 16 16 16 16 16 16 16 16 16 16 16 16 15 15 15 15 15 15 15 15 15 15 16 16 15 15 15 15 15 15 15
17 17 17 17 17 17 17 17 16 16 16 16 16 16 16 16 16 16 16 16 15 15 15 15 15 15 15 15 15 15 15 15 15 15 15 15 14 15 14 14 14 15 15
17 17 17 17 16 16 16 16 16 16 16 16 16 15 15 16 16 16 16 15 15 15 15 15 15 15 15 15 15 15 15 15 15 14 14 14 14 14 14 14 14 14 14
17 17 17 16 16 16 16 16 16 16 16 15 15 15 15 15 15 15 15 15 15 15 14 14 14 15 14 14 14 14 14 14 14 14 14 14 14 14 14 14 14 14 14
16 16 16 16 16 16 15 15 15 15 15 15 15 15 15 15 15 15 15 15 14 14 14 14 14 14 14 14 14 13 13 13 14 14 14 14 14 14 14 13 13 13 14
16 16 16 16 16 15 15 15 15 15 15 15 14 14 14 14 14 14 14 14 13 13 14 13 14 14 14 14 13 13 13 13 13 13 13 13 13 13 13 13 13 13 13
16 16 15 15 15 15 15 15 14 14 14 14 14 14 14 14 14 14 14 13 13 13 13 13 13 13 13 13 13 13 13 13 13 13 13 13 13 13 13 13 13 12 13
15 15 15 15 15 15 14 14 14 14 14 14 13 13 13 13 13 13 13 13 13 13 13 13 13 13 13 13 13 13 13 13 13 13 13 13 13 13 13 12 12 12 12
14 14 14 14 14 14 14 14 14 14 14 13 13 13 13 12 12 13 13 13 12 12 12 12 12 12 12 12 12 12 12 12 12 12 12 12 12 12 12 12 12 12 12
14 14 14 14 14 14 14 13 13 13 13 13 13 12 12 12 12 12 12 12 12 12 11 12 12 12 12 12 12 11 11 11 11 11 11 12 12 12 12 11 11 11 11
14 14 14 14 14 13 13 13 13 13 12 12 12 12 12 11 11 11 11 11 11 11 11 11 11 11 11 11 11 11 11 11 11 11 11 11 11 11 11 11 11 11 11
14 13 14 14 14 14 13 13 13 12 12 12 12 12 11 11 11 11 11 11 11 11 11 11 11 11 11 11 11 11 11 11 11 10 10 10 10 10 10 10 10 10 10
13 13 14 14 13 13 13 13 12 12 12 12 12 11 11 11 11 11 11 11 11 11 11 11 11 10 10 10 10 10 10 10 10 10 10 10 10 10 10 9 9 9 9
13 13 13 13 13 13 13 12 12 12 12 11 11 11 11 11 11 11 11 10 10 10 10 10 10 10 10 10 10 10 10 10 10 9 9 9 9 9 9 9 9 9 9
13 13 13 12 12 12 12 12 12 12 12 11 11 11 11 11 10 10 10 10 10 10 10 10 10 9 9 9 9 9 9 9 9 9 9 9 8 8 8 8 8 8 8
13 13 12 12 12 12 12 12 12 11 11 11 11 11 10 10 10 10 10 10 9 9 9 9 9 9 9 9 8 8 8 8 8 8 8 8 8 8 8 8 7 7 7
12 12 12 12 12 12 12 11 11 11 11 11 10 10 9 9 10 9 9 9 9 9 9 9 9 8 8 8 8 8 8 8 8 8 7 7 7 7 7 7 7 7 7
12 12 12 11 11 11 11 11 11 10 10 10 10 10 9 9 9 9 9 9 9 8 8 8 8 8 8 8 7 7 7 7 7 7 7 6 6 6 7 6 6 6 6
11 11 11 11 11 11 11 11 10 10 10 10 10 9 9 9 9 8 8 8 8 8 8 8 7 7 7 7 7 7 7 6 6 6 6 6 6 6 6 6 6 6 6
11 11 11 11 11 10 10 10 10 10 10 9 9 9 8 8 8 8 8 7 7 7 7 7 7 7 6 6 6 6 6 6 6 6 5 5 5 5 5 5 5 5 5
11 11 11 11 10 10 10 9 9 9 9 9 8 8 8 8 7 7 7 7 7 7 6 6 6 6 6 6 6 6 6 6 5 5 5 5 4 4 4 4 4 4 5
11 10 10 10 10 10 9 9 9 8 8 8 8 7 7 7 7 7 7 6 6 6 6 6 6 5 5 5 5 5 5 5 5 5 5 4 4 4 4 4 4 4 4
Wind_Speed
6 6 5 5 5 6 5 5 5 5 4 5 5 4 4 5 5 5 5 5 5 5 5 5 5 5 4 4 5 5 5 5 5 5 4 3 4 5 4 6 7 8 8
6 6 6 5 5 5 5 5 5 5 5 5 5 5 5 5 5 6 6 6 6 6 6 6 6 5 5 5 5 5 5 5 6 6 5 4 5 5 5 6 6 7 7
6 5 5 5 5 5 5 5 5 5 5 5 5 5 5 5 5 6 6 6 6 6 7 7 7 6 6 5 6 6 5 6 6 7 6 5 5 5 5 6 7 6 7
5 5 5 5 5 5 5 5 5 5 5 5 5 5 5 6 6 6 6 6 6 7 6 6 7 7 7 7 6 6 6 6 6 7 7 6 5 5 5 6 6 5 6
4 4 4 4 4 4 5 5 5 5 5 5 5 5 5 5 5 5 5 6 5 6 6 6 6 6 5 6 6 6 6 6 6 7 7 6 6 5 5 6 6 6 5
3 3 3 3 4 4 4 5 4 5 5 5 5 5 5 4 1 2 4 4 4 5 6 6 6 6 6 6 6 6 6 8 8 7 7 6 7 6 5 6 6 6 6
3 3 3 4 4 4 4 4 5 5 5 5 5 4 4 3 0 1 3 4 5 5 6 6 6 5 5 6 6 8 7 7 8 8 8 8 7 6 6 7 6 7 7
3 3 3 3 4 3 4 4 4 4 4 4 4 4 4 3 2 2 3 4 5 5 6 6 6 6 5 6 7 6 6 6 7 8 7 8 7 6 7 8 8 8 8
2 2 3 3 3 3 4 3 3 3 3 4 3 4 4 3 3 3 4 3 4 5 5 5 5 5 3 5 7 7 7 6 6 6 7 7 6 7 7 7 6 7 7
2 2 2 3 3 3 3 3 2 3 3 2 2 2 2 2 1 2 4 4 4 4 4 4 3 3 3 4 6 7 8 7 6 6 7 9 9 8 9 8 7 7 7
2 2 2 2 3 3 2 1 1 2 1 1 1 1 1 1 1 1 2 3 4 4 4 4 3 2 3 5 6 6 7 8 8 8 7 6 7 7 7 7 7 8 8
2 2 2 2 2 1 1 2 2 2 2 2 1 1 1 1 1 1 1 3 5 4 4 4 2 1 3 5 5 5 7 8 7 6 6 6 6 6 5 6 7 8 8
2 2 2 2 1 1 2 2 2 2 1 1 1 1 1 1 0 1 3 3 4 4 4 3 3 3 4 5 5 6 6 6 6 6 6 6 6 5 6 5 6 7 8
2 2 2 2 2 2 1 1 1 1 1 1 1 1 1 1 2 2 2 2 3 4 4 3 4 5 5 5 4 5 5 5 5 6 6 6 5 5 5 5 5 5 6
2 2 2 2 2 2 1 0 0 1 0 1 1 2 2 2 3 4 3 3 3 3 3 3 3 3 3 4 4 4 5 4 5 5 6 6 5 5 4 4 4 5 5
2 2 2 2 2 1 1 2 4 2 4 2 1 2 1 2 1 2 3 4 5 4 3 3 3 3 4 4 5 5 4 4 4 5 5 5 6 6 5 4 4 5 5
2 2 2 1 1 1 1 1 1 2 3 2 1 0 1 1 1 2 3 3 3 3 3 3 3 4 4 4 5 5 5 4 4 5 5 5 6 6 5 5 5 5 5
2 2 2 2 1 1 1 1 1 0 0 0 2 3 2 2 2 3 3 2 2 1 3 3 3 4 4 4 5 5 5 4 4 4 5 5 5 5 5 5 5 6 6
1 1 1 1 1 1 1 1 1 0 0 0 1 1 2 2 2 2 1 2 4 4 4 4 4 4 4 4 4 4 4 4 5 4 4 4 4 5 5 5 5 5 6
1 2 1 1 1 1 1 1 1 0 0 1 1 2 2 1 2 2 2 3 4 4 4 4 4 4 5 5 4 4 5 5 5 4 4 4 4 4 4 5 6 6 5
1 2 3 1 1 1 1 1 1 1 1 1 1 2 3 2 3 3 3 3 4 4 4 4 4 4 4 4 5 5 5 5 5 5 4 4 4 4 5 5 6 6 6
1 1 1 1 1 1 0 1 1 1 1 1 1 1 2 2 3 3 3 3 3 3 4 4 4 4 5 5 5 5 5 5 6 6 5 5 5 5 5 5 6 6 6
1 1 1 1 1 1 0 0 1 1 1 1 1 2 1 1 2 3 3 3 4 4 4 4 4 4 4 5 5 5 5 6 6 7 7 6 6 6 5 6 6 6 6
1 1 1 1 1 1 1 1 1 1 1 2 2 2 2 2 2 2 3 3 3 3 3 4 4 5 6 6 6 6 6 7 8 7 7 7 6 6 6 6 6 7 7
1 1 1 1 1 1 1 1 1 1 1 1 2 2 2 2 2 2 2 3 3 3 4 4 4 5 7 8 7 7 8 9 8 7 6 6 6 6 6 7 6 6 6
1 1 1 1 1 1 1 1 0 1 1 1 1 2 2 2 2 3 3 3 4 4 4 4 5 7 8 7 9 9 8 8 8 8 8 6 6 6 6 6 7 6 7
Wind_Direction
183 186 192 193 197 201 203 207 210 216 217 219 221 218 221 226 227 230 235 240 241 243 246 241 242 254 252 247 241 242 243 249 256 264 262 250 239 251 244 246 242 238 221
183 185 189 189 191 199 203 209 213 218 222 222 227 228 231 234 234 234 236 236 239 244 248 247 245 238 237 252 253 249 248 248 253 262 262 254 243 244 246 251 253 248 245
185 189 189 193 197 205 212 214 217 221 228 230 228 231 236 242 244 241 238 238 239 243 245 246 247 244 243 244 249 252 251 248 247 255 258 259 256 252 251 250 251 252 252
191 194 197 202 203 211 216 222 223 223 226 229 232 237 239 241 244 246 239 240 244 243 241 244 247 245 244 245 244 248 254 257 250 253 256 255 253 250 251 256 252 243 252
191 199 203 209 212 216 219 224 228 230 232 232 235 240 242 241 244 245 245 241 241 244 245 244 245 250 263 259 259 253 252 253 257 258 259 259 258 258 256 258 262 259 248
183 197 199 208 215 217 222 228 233 239 243 238 238 242 246 249 206 261 261 255 250 250 255 254 245 237 239 237 255 270 272 258 260 263 262 265 267 267 272 267 269 267 266
188 196 196 204 213 222 230 235 239 243 244 242 242 242 244 251 204 231 263 259 254 256 257 259 260 252 240 246 232 228 240 246 250 257 262 262 264 268 272 269 267 270 271
190 202 205 209 218 227 234 238 243 241 240 236 236 235 238 235 191 216 242 248 259 261 261 261 260 264 262 262 256 249 248 245 241 244 256 262 266 271 262 262 267 263 261
192 205 212 217 220 224 231 237 241 242 246 245 235 232 234 228 193 213 235 248 252 256 259 259 260 264 289 287 263 256 255 255 237 222 238 249 262 261 261 264 264 264 267
206 213 210 212 215 224 230 240 248 242 245 245 233 231 231 229 175 208 249 253 258 261 255 253 250 267 283 274 256 257 257 259 261 243 233 237 242 238 230 244 258 262 271
204 202 207 211 211 215 212 217 233 217 200 209 206 213 210 212 183 203 265 270 270 271 266 262 260 198 239 257 259 259 266 270 264 259 253 247 243 243 240 241 248 255 261
197 194 192 198 206 182 191 203 197 193 183 186 199 230 233 215 245 276 278 271 293 277 276 273 277 215 235 247 255 268 273 270 266 264 262 261 259 259 259 258 251 253 259
185 184 180 173 171 167 180 179 178 172 184 199 222 251 287 301 299 197 225 240 270 276 286 314 300 278 260 250 240 254 262 266 270 272 273 272 271 275 276 268 255 249 253
162 164 162 156 154 144 182 179 172 171 198 223 252 276 297 309 320 320 301 271 245 258 278 261 241 248 255 274 269 255 258 269 275 277 279 283 285 281 275 277 274 268 265
162 168 171 164 152 155 146 79 187 156 5 276 286 298 315 316 344 349 319 310 305 305 294 271 267 267 265 267 272 275 278 273 267 272 278 283 284 286 286 287 280 275 270
178 178 181 172 154 161 138 100 68 83 86 79 3 321 344 31 14 308 305 320 323 313 305 300 299 289 283 281 279 280 280 286 293 292 287 285 284 282 281 278 273 272 272
196 187 194 179 167 174 182 174 140 111 120 123 124 60 339 4 301 297 298 294 279 271 285 299 304 305 300 297 294 292 295 298 299 293 289 288 287 287 287 286 283 282 281
209 173 195 196 189 189 182 196 207 194 151 60 149 163 183 217 267 293 308 310 320 285 300 310 312 310 313 313 309 306 304 300 296 291 290 291 290 290 290 286 284 289 288
200 180 192 204 172 161 175 203 207 210 305 340 27 112 163 212 219 262 278 323 330 331 329 332 330 327 328 324 322 321 321 316 313 306 299 292 290 287 286 289 289 292 288
131 100 140 188 178 173 183 212 230 232 273 331 352 358 14 350 340 350 335 332 330 334 337 338 336 333 331 331 330 326 325 325 317 310 308 305 302 299 294 291 291 290 287
147 135 153 199 187 178 200 226 242 266 282 312 327 23 11 326 326 336 337 345 344 346 345 341 338 335 332 332 330 327 325 325 325 326 326 322 318 314 311 303 292 287 287
144 131 148 161 158 164 214 228 242 263 296 334 334 45 113 311 333 344 344 350 350 347 345 341 337 338 339 337 330 327 328 330 331 332 330 325 324 322 317 312 311 308 298
139 129 131 122 126 120 179 314 351 9 1 346 341 352 15 341 333 345 358 0 356 353 353 348 340 341 346 343 337 331 330 333 334 334 328 323 320 317 314 314 312 310 308
114 102 85 86 90 78 44 18 16 8 359 357 4 5 355 355 344 349 350 353 354 352 351 348 348 352 351 344 337 340 354 347 335 329 328 321 316 313 309 307 308 313 311
133 118 83 61 53 44 43 29 16 8 11 17 13 350 343 349 349 352 358 359 354 352 353 350 352 352 349 345 347 355 3 356 342 327 311 301 301 301 301 302 307 309 308
103 90 72 53 65 76 86 81 37 15 19 15 356 341 344 348 350 357 358 355 348 348 348 350 353 350 344 347 5 7 357 344 331 318 305 299 297 300 306 303 305 307 305
Height
1523 1525 1527 1528 1529 1531 1531 1532 1533 1534 1535 1535 1536 1536 1536 1537 1537 1537 1537 1537 1537 1537 1538 1538 1537 1537 1538 1539 1539 1538 1538 1538 1538 1537 1537 1537 1535 1535 1535 1535 1535 1534 1534
1522 1523 1525 1526 1527 1528 1529 1530 1530 1531 1532 1532 1533 1533 1534 1534 1534 1534 1534 1535 1535 1535 1535 1535 1535 1535 1535 1535 1536 1536 1536 1535 1535 1535 1535 1534 1533 1532 1532 1531 1531 1531 1530
1520 1522 1523 1524 1525 1526 1526 1527 1528 1528 1529 1529 1530 1530 1530 1531 1531 1531 1531 1531 1531 1532 1532 1532 1532 1532 1532 1532 1532 1533 1533 1533 1532 1532 1532 1532 1531 1530 1529 1528 1528 1527 1527
1518 1519 1520 1521 1522 1523 1524 1525 1525 1525 1526 1526 1526 1527 1527 1527 1527 1528 1528 1528 1528 1528 1528 1528 1529 1529 1529 1529 1529 1528 1529 1529 1529 1529 1528 1528 1527 1526 1526 1525 1525 1524 1523
1515 1516 1518 1519 1520 1521 1521 1522 1523 1523 1523 1523 1524 1524 1524 1524 1524 1524 1524 1524 1524 1525 1525 1525 1525 1525 1525 1525 1525 1525 1525 1525 1525 1525 1525 1525 1524 1523 1523 1522 1521 1520 1520
1513 1514 1515 1516 1517 1518 1518 1519 1519 1520 1520 1520 1520 1520 1521 1521 1521 1520 1521 1521 1521 1521 1521 1521 1521 1521 1521 1520 1520 1521 1521 1521 1521 1521 1520 1520 1519 1519 1518 1518 1518 1517 1516
1510 1511 1512 1513 1514 1515 1515 1516 1516 1516 1516 1516 1517 1517 1517 1517 1517 1517 1517 1517 1517 1517 1518 1517 1518 1518 1517 1517 1516 1516 1516 1516 1516 1516 1516 1515 1515 1515 1514 1513 1513 1512 1511
1508 1509 1510 1511 1511 1512 1512 1512 1513 1513 1513 1513 1513 1513 1513 1513 1513 1513 1513 1513 1513 1513 1513 1513 1513 1513 1513 1513 1513 1512 1512 1511 1511 1511 1510 1510 1510 1510 1509 1509 1508 1508 1507
1506 1507 1507 1508 1509 1509 1509 1509 1509 1509 1509 1509 1509 1509 1509 1509 1509 1509 1509 1509 1509 1509 1509 1509 1509 1508 1508 1508 1508 1508 1507 1507 1506 1506 1505 1505 1504 1505 1504 1504 1504 1504 1503
1504 1505 1505 1505 1506 1507 1507 1506 1506 1506 1506 1506 1506 1506 1506 1506 1506 1505 1505 1505 1506 1505 1505 1505 1504 1504 1504 1504 1504 1504 1503 1502 1502 1501 1500 1500 1500 1499 1499 1499 1499 1499 1498
1502 1503 1503 1503 1504 1504 1504 1504 1504 1504 1504 1503 1503 1503 1503 1503 1502 1502 1502 1502 1502 1501 1501 1502 1501 1500 1500 1499 1499 1499 1498 1498 1497 1497 1497 1496 1495 1495 1494 1493 1493 1493 1493
1500 1501 1501 1501 1502 1502 1502 1502 1502 1502 1502 1501 1501 1501 1501 1500 1500 1499 1499 1498 1498 1497 1497 1497 1497 1496 1496 1495 1494 1494 1493 1493 1493 1492 1492 1491 1490 1490 1489 1488 1487 1487 1487
1498 1499 1499 1500 1500 1500 1500 1500 1500 1500 1500 1500 1500 1500 1499 1499 1498 1497 1496 1495 1494 1494 1493 1493 1492 1492 1491 1491 1489 1489 1488 1488 1488 1487 1486 1486 1485 1484 1483 1483 1482 1481 1481
1497 1497 1498 1498 1499 1499 1499 1499 1499 1499 1499 1499 1499 1498 1498 1497 1496 1495 1493 1492 1491 1490 1490 1489 1488 1488 1487 1487 1486 1484 1484 1483 1483 1482 1482 1481 1480 1479 1478 1478 1477 1477 1476
1496 1496 1496 1497 1497 1497 1497 1497 1497 1498 1498 1497 1497 1497 1497 1496 1495 1493 1492 1490 1490 1488 1487 1486 1485 1485 1484 1483 1482 1482 1480 1479 1478 1478 1477 1476 1475 1474 1473 1473 1472 1471 1471
1494 1494 1495 1495 1495 1495 1496 1496 1496 1496 1496 1495 1495 1495 1494 1494 1493 1491 1490 1489 1487 1486 1485 1484 1483 1482 1481 1480 1479 1478 1477 1475 1475 1474 1473 1472 1471 1470 1469 1468 1468 1467 1466
1492 1493 1493 1493 1493 1494 1494 1494 1494 1495 1494 1494 1493 1493 1492 1491 1491 1489 1488 1486 1485 1484 1483 1482 1481 1480 1479 1478 1476 1475 1473 1472 1470 1469 1468 1468 1467 1466 1465 1464 1463 1463 1462
1491 1491 1491 1492 1492 1492 1492 1493 1493 1493 1493 1492 1492 1491 1490 1489 1488 1487 1486 1484 1483 1482 1482 1480 1479 1478 1476 1475 1473 1472 1470 1468 1467 1465 1464 1464 1463 1462 1461 1460 1459 1458 1458
1489 1489 1490 1490 1491 1490 1491 1491 1492 1491 1491 1491 1490 1489 1488 1487 1486 1485 1484 1483 1482 1481 1480 1478 1477 1476 1474 1472 1470 1469 1467 1465 1464 1462 1461 1460 1459 1458 1457 1456 1455 1454 1454
1488 1488 1488 1489 1489 1489 1489 1490 1490 1490 1490 1490 1489 1488 1487 1486 1485 1484 1483 1482 1480 1479 1478 1476 1475 1473 1472 1470 1468 1466 1464 1462 1461 1459 1458 1457 1455 1454 1454 1453 1452 1451 1450
1487 1487 1487 1487 1488 1488 1488 1488 1489 1489 1488 1488 1488 1487 1486 1485 1484 1483 1482 1480 1479 1477 1476 1474 1473 1471 1470 1468 1466 1464 1462 1461 1459 1457 1455 1454 1453 1451 1451 1450 1449 1448 1446
1487 1487 1487 1487 1487 1487 1487 1487 1488 1488 1487 1487 1486 1485 1484 1484 1483 1482 1481 1479 1478 1476 1475 1473 1472 1470 1468 1466 1465 1463 1461 1459 1457 1455 1453 1451 1450 1449 1448 1447 1445 1444 1443
1486 1486 1486 1486 1486 1486 1486 1487 1486 1486 1486 1485 1484 1484 1483 1482 1482 1481 1479 1478 1477 1475 1474 1472 1471 1469 1467 1465 1463 1461 1459 1457 1455 1453 1451 1449 1448 1447 1445 1444 1442 1441 1440
1486 1486 1486 1486 1486 1486 1486 1486 1485 1485 1485 1484 1483 1483 1482 1481 1480 1479 1478 1477 1475 1474 1472 1471 1469 1467 1465 1464 1462 1460 1457 1455 1453 1451 1449 1447 1446 1444 1443 1442 1440 1439 1437
1486 1486 1486 1486 1486 1485 1485 1485 1485 1484 1484 1483 1482 1481 1481 1480 1479 1478 1476 1475 1474 1472 1471 1469 1467 1465 1463 1461 1459 1457 1454 1452 1450 1448 1446 1445 1443 1442 1441 1439 1438 1436 1435
1486 1486 1486 1485 1485 1484 1484 1484 1484 1483 1483 1482 1481 1481 1480 1479 1478 1476 1475 1474 1472 1471 1469 1467 1466 1464 1461 1459 1457 1454 1452 1449 1447 1445 1443 1442 1440 1439 1438 1437 1435 1434 1433